Location: Berg
(47.2344°N, 9.5296°E)
Time: 06:34:12
(UTC+00:00)

Tiangong - Pass Details

Date: 29 September 2021
Orbit: 382 x 384 km, 41.5° (Epoch: 20 October)

Event Time Altitude Azimuth Distance (km) Brightness Sun altitude
Exits shadow 04:10:54 13° 215° (SW) 1,218 3.2 -12.2°
Maximum altitude 04:12:53 23° 168° (SSE) 873 2.9 -11.9°
Drops below altitude 10° 04:15:26 10° 113° (ESE) 1,396 4.8 -11.4°
Sets 04:17:45 0° 98° (E) 2,249 6.6 -11.0°
